Simultaneous Nadir Overpasses (SNOs) Predictions

Prediction of SNOs between GOES-16 and NOAA-19 Satellite Orbit:

Table of predicted SNOs for the next 14.0 days since TLE Epoch: 7/12/2019
Index Date Time (GOES-16) GOES-16 Lat,Lon NOAA-19 Lat,Lon Distance(km) Time Diff (sec)
1 07/12/2019 22:00:51 0.02, -75.19 0.06, -75.11 10.01 0
2 07/13/2019 21:50:33 0.02, -75.19 0.69, -72.26 334.21 80
3 07/16/2019 10:11:41 -0.03, -75.21 0.47, -77.26 234.41 80
4 07/17/2019 09:57:23 -0.03, -75.22 -0.21, -74.43 90.46 80
5 07/18/2019 09:45:46 -0.03, -75.23 -0.89, -71.59 415.51 80
6 07/19/2019 22:18:30 0.04, -75.23 -0.96, -79.42 478.92 80
7 07/20/2019 22:06:53 0.04, -75.24 -0.27, -76.59 153.31 80
8 07/21/2019 21:57:54 0.04, -75.26 0.37, -73.74 172.52 80
9 07/22/2019 21:46:17 0.04, -75.27 1.06, -70.91 498.45 80
10 07/24/2019 10:16:23 -0.04, -75.31 0.76, -78.75 392.98 80
11 07/25/2019 10:04:46 -0.04, -75.33 0.07, -75.92 66.81 80
12 07/26/2019 09:55:47 -0.04, -75.35 -0.56, -73.07 259.50 80




NCC Satellite Simultaneous Nadir Overpasses (SNOs) Prediction Service
